| time (UTC) | temp C | wind direction | speed KPH | gust KPH | rain 1hr cm | rain 24hr cm | rain mn cm | humidity % | barometer mb |
| 20260509173854 | 11 | 322 | 0.0 | 0.0 | 0.00 | 0.00 | 0.00 | 77 | 1016.7 |
| 20260509173657 | 11 | 318 | 0.0 | 0.0 | 0.00 | 0.00 | 0.00 | 78 | 1016.6 |
| 20260509172854 | 11 | 14 | 0.0 | 3.2 | 0.00 | 0.00 | 0.00 | 78 | 1016.6 |
| 20260509171855 | 11 | 335 | 0.0 | 4.8 | 0.00 | 0.00 | 0.00 | 80 | 1016.5 |
| 20260509170854 | 11 | 330 | 0.0 | 0.0 | 0.00 | 0.00 | 0.00 | 79 | 1016.4 |
| 20260509165854 | 11 | 259 | 0.0 | 0.0 | 0.00 | 0.00 | 0.00 | 79 | 1016.4 |
| 20260509165658 | 11 | 259 | 0.0 | 0.0 | 0.00 | 0.00 | 0.00 | 79 | 1016.4 |
| 20260509164854 | 11 | 58 | 0.0 | 0.0 | 0.00 | 0.00 | 0.00 | 78 | 1016.3 |
| 20260509163855 | 11 | 310 | 0.0 | 0.0 | 0.00 | 0.00 | 0.00 | 75 | 1016.2 |
| 20260509163657 | 11 | 316 | 0.0 | 0.0 | 0.00 | 0.00 | 0.00 | 75 | 1016.2 |
| 20260509162855 | 11 | 30 | 0.0 | 0.0 | 0.00 | 0.00 | 0.00 | 75 | 1016.1 |
| 20260509161854 | 11 | 288 | 0.0 | 0.0 | 0.00 | 0.00 | 0.00 | 75 | 1016.1 |
| 20260509161656 | 11 | 288 | 0.0 | 0.0 | 0.00 | 0.00 | 0.00 | 74 | 1016.1 |
| 20260509160854 | 11 | 288 | 0.0 | 0.0 | 0.00 | 0.00 | 0.00 | 73 | 1016.1 |
| 20260509155854 | 11 | 300 | 0.0 | 1.6 | 0.00 | 0.00 | 0.00 | 73 | 1016.2 |
| 20260509155656 | 11 | 246 | 0.0 | 16.1 | 0.00 | 0.00 | 0.00 | 73 | 1016.2 |
| 20260509154855 | 12 | 262 | 0.0 | 1.6 | 0.00 | 0.00 | 0.00 | 73 | 1016.1 |
| 20260509153855 | 12 | 262 | 0.0 | 1.6 | 0.00 | 0.00 | 0.00 | 74 | 1015.9 |
| 20260509152855 | 12 | 242 | 0.0 | 1.6 | 0.00 | 0.00 | 0.00 | 73 | 1015.9 |
| 20260509151854 | 11 | 241 | 0.0 | 1.6 | 0.00 | 0.00 | 0.00 | 71 | 1015.9 |
| 20260509151656 | 11 | 241 | 0.0 | 0.0 | 0.00 | 0.00 | 0.00 | 72 | 1015.9 |
| 20260509150854 | 11 | 241 | 0.0 | 1.6 | 0.00 | 0.00 | 0.00 | 71 | 1015.9 |
| 20260509145854 | 11 | 241 | 0.0 | 1.6 | 0.00 | 0.00 | 0.00 | 70 | 1016.0 |
| 20260509145656 | 11 | 241 | 0.0 | 0.0 | 0.00 | 0.00 | 0.00 | 70 | 1016.0 |
| 20260509144854 | 11 | 241 | 0.0 | 1.6 | 0.00 | 0.00 | 0.00 | 70 | 1015.9 |
| 20260509143854 | 11 | 231 | 0.0 | 1.6 | 0.00 | 0.00 | 0.00 | 70 | 1015.9 |
| 20260509143657 | 11 | 207 | 0.0 | 1.6 | 0.00 | 0.00 | 0.00 | 70 | 1015.9 |
| 20260509142854 | 12 | 207 | 0.0 | 0.0 | 0.00 | 0.00 | 0.00 | 68 | 1015.8 |
| 20260509141855 | 12 | 207 | 0.0 | 1.6 | 0.00 | 0.00 | 0.00 | 67 | 1015.7 |
| 20260509140853 | 12 | 194 | 0.0 | 3.2 | 0.00 | 0.00 | 0.00 | 67 | 1015.5 |
| 20260509135854 | 12 | 220 | 0.0 | 0.0 | 0.00 | 0.00 | 0.00 | 64 | 1015.4 |
| 20260509134854 | 12 | 264 | 0.0 | 0.0 | 0.00 | 0.00 | 0.00 | 66 | 1015.3 |
| 20260509133855 | 13 | 264 | 0.0 | 1.6 | 0.00 | 0.00 | 0.00 | 62 | 1015.2 |
| 20260509132854 | 12 | 183 | 0.0 | 1.6 | 0.00 | 0.00 | 0.00 | 62 | 1015.2 |
| 20260509131854 | 12 | 238 | 0.0 | 0.0 | 0.00 | 0.00 | 0.00 | 63 | 1015.1 |
| 20260509130854 | 12 | 52 | 0.0 | 1.6 | 0.00 | 0.00 | 0.00 | 63 | 1015.0 |
| 20260509125854 | 13 | 250 | 0.0 | 1.6 | 0.00 | 0.00 | 0.00 | 62 | 1014.9 |
| 20260509124853 | 13 | 249 | 0.0 | 1.6 | 0.00 | 0.00 | 0.00 | 61 | 1014.9 |
| 20260509123854 | 13 | 226 | 0.0 | 1.6 | 0.00 | 0.00 | 0.00 | 59 | 1014.8 |
| 20260509122854 | 13 | 214 | 0.0 | 1.6 | 0.00 | 0.00 | 0.00 | 58 | 1014.8 |
| 20260509121855 | 13 | 194 | 0.0 | 1.6 | 0.00 | 0.00 | 0.00 | 60 | 1014.7 |
| 20260509120855 | 13 | 212 | 0.0 | 1.6 | 0.00 | 0.00 | 0.00 | 59 | 1014.7 |
| 20260509115854 | 13 | 143 | 0.0 | 3.2 | 0.00 | 0.00 | 0.00 | 59 | 1014.6 |
| 20260509114854 | 13 | 220 | 0.0 | 0.0 | 0.00 | 0.00 | 0.00 | 61 | 1014.6 |
| 20260509113854 | 13 | 199 | 0.0 | 0.0 | 0.00 | 0.00 | 0.00 | 59 | 1014.6 |
| 20260509112855 | 13 | 231 | 0.0 | 1.6 | 0.00 | 0.00 | 0.00 | 60 | 1014.4 |
| 20260509111854 | 12 | 231 | 0.0 | 3.2 | 0.00 | 0.00 | 0.00 | 61 | 1014.3 |
| 20260509110853 | 12 | 233 | 0.0 | 1.6 | 0.00 | 0.00 | 0.00 | 62 | 1014.2 |
| 20260509105854 | 12 | 248 | 1.6 | 3.2 | 0.00 | 0.00 | 0.00 | 62 | 1014.0 |
| 20260509104855 | 12 | 245 | 0.0 | 0.0 | 0.00 | 0.00 | 0.00 | 63 | 1013.9 |
| 20260509103853 | 12 | 245 | 0.0 | 0.0 | 0.00 | 0.00 | 0.00 | 61 | 1013.8 |
| 20260509102853 | 13 | 249 | 0.0 | 1.6 | 0.00 | 0.00 | 0.00 | 62 | 1013.6 |
| 20260509101853 | 13 | 251 | 0.0 | 1.6 | 0.00 | 0.00 | 0.00 | 59 | 1013.4 |
| 20260509100853 | 14 | 259 | 0.0 | 1.6 | 0.00 | 0.00 | 0.00 | 55 | 1013.2 |
| 20260509095853 | 14 | 253 | 0.0 | 1.6 | 0.00 | 0.00 | 0.00 | 54 | 1013.1 |
| 20260509094853 | 14 | 261 | 0.0 | 1.6 | 0.00 | 0.00 | 0.00 | 56 | 1012.9 |
| 20260509093855 | 15 | 263 | 0.0 | 1.6 | 0.00 | 0.00 | 0.00 | 55 | 1012.7 |
| 20260509092854 | 15 | 203 | 0.0 | 0.0 | 0.00 | 0.00 | 0.00 | 55 | 1012.6 |
| 20260509091854 | 15 | 199 | 0.0 | 0.0 | 0.00 | 0.00 | 0.00 | 54 | 1012.5 |
| 20260509090854 | 15 | 239 | 0.0 | 3.2 | 0.00 | 0.00 | 0.00 | 54 | 1012.4 |
| 20260509085854 | 15 | 273 | 0.0 | 1.6 | 0.00 | 0.00 | 0.00 | 55 | 1012.3 |
| 20260509084854 | 15 | 229 | 0.0 | 0.0 | 0.00 | 0.00 | 0.00 | 52 | 1012.2 |
| 20260509083854 | 16 | 231 | 0.0 | 1.6 | 0.00 | 0.00 | 0.00 | 50 | 1012.1 |
| 20260509082855 | 16 | 231 | 0.0 | 1.6 | 0.00 | 0.00 | 0.00 | 49 | 1012.0 |
| 20260509081853 | 16 | 130 | 0.0 | 0.0 | 0.00 | 0.00 | 0.00 | 48 | 1011.8 |
| 20260509080854 | 16 | 231 | 0.0 | 0.0 | 0.00 | 0.00 | 0.00 | 47 | 1011.7 |
| 20260509075854 | 17 | 3 | 0.0 | 0.0 | 0.00 | 0.00 | 0.00 | 46 | 1011.6 |
| 20260509074854 | 17 | 17 | 0.0 | 1.6 | 0.00 | 0.00 | 0.00 | 46 | 1011.5 |
| 20260509073854 | 17 | 6 | 1.6 | 24.1 | 0.00 | 0.00 | 0.00 | 46 | 1011.5 |
| 20260509072854 | 17 | 105 | 0.0 | 1.6 | 0.00 | 0.00 | 0.00 | 45 | 1011.3 |
| 20260509071854 | 18 | 90 | 0.0 | 1.6 | 0.00 | 0.00 | 0.00 | 44 | 1011.1 |
| 20260509070854 | 18 | 226 | 0.0 | 3.2 | 0.00 | 0.00 | 0.00 | 44 | 1011.1 |
| 20260509065853 | 19 | 171 | 0.0 | 4.8 | 0.00 | 0.00 | 0.00 | 45 | 1010.9 |
| 20260509064855 | 18 | 192 | 0.0 | 1.6 | 0.00 | 0.00 | 0.00 | 46 | 1010.7 |
| 20260509063855 | 18 | 32 | 3.2 | 4.8 | 0.00 | 0.00 | 0.00 | 46 | 1010.5 |
| 20260509062855 | 18 | 137 | 1.6 | 0.0 | 0.00 | 0.00 | 0.00 | 49 | 1010.4 |
| 20260509061854 | 19 | 3 | 3.2 | 4.8 | 0.00 | 0.00 | 0.00 | 45 | 1010.2 |
| 20260509060854 | 18 | 116 | 0.0 | 1.6 | 0.00 | 0.00 | 0.00 | 51 | 1010.1 |
| 20260509055855 | 18 | 69 | 0.0 | 3.2 | 0.00 | 0.00 | 0.00 | 48 | 1010.1 |
| 20260509054853 | 18 | 47 | 1.6 | 3.2 | 0.00 | 0.00 | 0.00 | 47 | 1010.1 |
| 20260509053854 | 19 | 354 | 1.6 | 0.0 | 0.00 | 0.00 | 0.00 | 45 | 1010.1 |
| 20260509052853 | 20 | 57 | 0.0 | 1.6 | 0.00 | 0.00 | 0.00 | 45 | 1009.9 |
| 20260509051853 | 20 | 48 | 3.2 | 4.8 | 0.00 | 0.00 | 0.00 | 44 | 1009.8 |
| 20260509050855 | 20 | 62 | 1.6 | 3.2 | 0.00 | 0.00 | 0.00 | 44 | 1009.9 |
| 20260509045853 | 20 | 70 | 1.6 | 1.6 | 0.00 | 0.00 | 0.00 | 46 | 1009.9 |
| 20260509044853 | 20 | 342 | 0.0 | 1.6 | 0.00 | 0.00 | 0.00 | 47 | 1009.8 |
| 20260509043855 | 19 | 48 | 0.0 | 3.2 | 0.00 | 0.00 | 0.00 | 50 | 1009.8 |
| 20260509042853 | 19 | 8 | 3.2 | 4.8 | 0.00 | 0.00 | 0.00 | 52 | 1009.9 |
| 20260509041854 | 18 | 50 | 1.6 | 4.8 | 0.00 | 0.00 | 0.00 | 54 | 1009.8 |
| 20260509040853 | 19 | 16 | 4.8 | 4.8 | 0.00 | 0.00 | 0.00 | 53 | 1009.9 |
| 20260509035854 | 19 | 5 | 3.2 | 8.0 | 0.00 | 0.00 | 0.00 | 53 | 1009.6 |
| 20260509034853 | 19 | 342 | 1.6 | 3.2 | 0.00 | 0.00 | 0.00 | 53 | 1009.8 |
| 20260509033854 | 19 | 26 | 1.6 | 4.8 | 0.00 | 0.00 | 0.00 | 54 | 1009.7 |
| 20260509032854 | 20 | 22 | 3.2 | 4.8 | 0.00 | 0.00 | 0.00 | 55 | 1009.6 |
| 20260509031853 | 19 | 93 | 1.6 | 3.2 | 0.00 | 0.00 | 0.00 | 56 | 1009.7 |
| 20260509030854 | 19 | 330 | 1.6 | 3.2 | 0.00 | 0.00 | 0.00 | 59 | 1009.5 |
| 20260509025855 | 19 | 4 | 4.8 | 4.8 | 0.00 | 0.00 | 0.00 | 60 | 1009.5 |
| 20260509024854 | 19 | 54 | 3.2 | 4.8 | 0.00 | 0.00 | 0.00 | 60 | 1009.3 |
| 20260509023855 | 20 | 71 | 1.6 | 3.2 | 0.00 | 0.00 | 0.00 | 57 | 1009.3 |
| 20260509022853 | 20 | 292 | 0.0 | 1.6 | 0.00 | 0.00 | 0.00 | 57 | 1009.3 |
| 20260509021856 | 20 | 30 | 1.6 | 12.9 | 0.00 | 0.00 | 0.00 | 59 | 1009.4 |
| 20260509020856 | 19 | 57 | 1.6 | 4.8 | 0.00 | 0.00 | 0.00 | 60 | 1009.4 |
| 20260509015856 | 19 | 42 | 3.2 | 11.3 | 0.00 | 0.00 | 0.00 | 58 | 1009.3 |
| 20260509014856 | 18 | 36 | 0.0 | 1.6 | 0.00 | 0.00 | 0.00 | 61 | 1009.2 |
| 20260509013855 | 19 | 24 | 4.8 | 8.0 | 0.00 | 0.00 | 0.00 | 58 | 1009.2 |
| 20260509013657 | 19 | 5 | 1.6 | 1.6 | 0.00 | 0.00 | 0.00 | 61 | 1009.2 |
| 20260509012855 | 19 | 84 | 0.0 | 1.6 | 0.00 | 0.00 | 0.00 | 59 | 1009.3 |
| 20260509011856 | 19 | 52 | 1.6 | 4.8 | 0.00 | 0.00 | 0.00 | 56 | 1009.3 |
| 20260509010855 | 18 | 120 | 0.0 | 0.0 | 0.00 | 0.00 | 0.00 | 53 | 1009.1 |
| 20260509005856 | 18 | 31 | 1.6 | 4.8 | 0.00 | 0.00 | 0.00 | 53 | 1009.1 |
| 20260509004855 | 18 | 310 | 0.0 | 8.0 | 0.00 | 0.00 | 0.00 | 53 | 1009.1 |
| 20260509003855 | 19 | 124 | 1.6 | 3.2 | 0.00 | 0.00 | 0.00 | 52 | 1008.8 |
| 20260509002856 | 18 | 355 | 1.6 | 8.0 | 0.00 | 0.00 | 0.00 | 54 | 1008.7 |
| 20260509001855 | 19 | 214 | 1.6 | 4.8 | 0.00 | 0.00 | 0.00 | 51 | 1008.5 |
| 20260509000856 | 18 | 4 | 1.6 | 9.7 | 0.00 | 0.00 | 0.00 | 52 | 1008.3 |
| 20260508235856 | 19 | 20 | 1.6 | 1.6 | 0.00 | 0.00 | 0.00 | 52 | 1008.0 |
| 20260508234855 | 19 | 13 | 1.6 | 4.8 | 0.00 | 0.00 | 0.00 | 47 | 1008.0 |
| 20260508233856 | 20 | 73 | 0.0 | 4.8 | 0.00 | 0.00 | 0.00 | 45 | 1007.7 |
| 20260508232855 | 20 | 56 | 1.6 | 4.8 | 0.00 | 0.00 | 0.00 | 41 | 1007.8 |
| 20260508231856 | 20 | 170 | 0.0 | 3.2 | 0.00 | 0.00 | 0.00 | 42 | 1007.7 |
| 20260508230855 | 20 | 157 | 1.6 | 3.2 | 0.00 | 0.00 | 0.00 | 42 | 1007.6 |
| 20260508225855 | 20 | 63 | 0.0 | 3.2 | 0.00 | 0.00 | 0.00 | 44 | 1007.6 |
| 20260508224856 | 19 | 186 | 0.0 | 1.6 | 0.00 | 0.00 | 0.00 | 46 | 1007.5 |
| 20260508223855 | 19 | 146 | 1.6 | 4.8 | 0.00 | 0.00 | 0.00 | 44 | 1007.5 |
| 20260508222856 | 18 | 192 | 0.0 | 3.2 | 0.00 | 0.00 | 0.00 | 47 | 1007.3 |
| 20260508221856 | 18 | 212 | 1.6 | 4.8 | 0.00 | 0.00 | 0.00 | 45 | 1007.2 |
| 20260508220855 | 17 | 172 | 1.6 | 4.8 | 0.00 | 0.00 | 0.00 | 48 | 1007.1 |
| 20260508215856 | 17 | 188 | 0.0 | 1.6 | 0.00 | 0.00 | 0.00 | 47 | 1006.9 |
| 20260508214855 | 17 | 214 | 0.0 | 4.8 | 0.00 | 0.00 | 0.00 | 50 | 1006.8 |
| 20260508213856 | 15 | 205 | 0.0 | 1.6 | 0.00 | 0.00 | 0.00 | 53 | 1006.6 |
| 20260508212855 | 13 | 212 | 0.0 | 1.6 | 0.00 | 0.00 | 0.00 | 57 | 1006.4 |
| 20260508211856 | 13 | 223 | 1.6 | 4.8 | 0.00 | 0.00 | 0.00 | 56 | 1006.3 |
| 20260508211658 | 13 | 232 | 0.0 | 3.2 | 0.00 | 0.00 | 0.00 | 55 | 1006.3 |
| 20260508210856 | 13 | 211 | 0.0 | 3.2 | 0.00 | 0.00 | 0.00 | 56 | 1006.2 |
| 20260508205856 | 13 | 175 | 0.0 | 1.6 | 0.00 | 0.00 | 0.00 | 54 | 1006.0 |
| 20260508204855 | 12 | 197 | 0.0 | 3.2 | 0.00 | 0.00 | 0.00 | 55 | 1005.9 |
| 20260508203856 | 12 | 236 | 1.6 | 1.6 | 0.00 | 0.00 | 0.00 | 56 | 1005.7 |
| 20260508202854 | 12 | 205 | 1.6 | 3.2 | 0.00 | 0.00 | 0.00 | 54 | 1005.5 |
| 20260508201855 | 12 | 203 | 1.6 | 4.8 | 0.00 | 0.00 | 0.00 | 53 | 1005.4 |
| 20260508200855 | 12 | 171 | 1.6 | 4.8 | 0.00 | 0.00 | 0.00 | 52 | 1005.1 |
| 20260508195856 | 12 | 217 | 1.6 | 8.0 | 0.00 | 0.00 | 0.00 | 50 | 1004.8 |
| 20260508194855 | 12 | 206 | 1.6 | 4.8 | 0.00 | 0.00 | 0.00 | 48 | 1004.7 |
| 20260508193855 | 12 | 197 | 4.8 | 4.8 | 0.00 | 0.00 | 0.00 | 48 | 1004.4 |
| 20260508193657 | 12 | 204 | 3.2 | 8.0 | 0.00 | 0.00 | 0.00 | 48 | 1004.3 |
| 20260508192856 | 12 | 205 | 1.6 | 3.2 | 0.00 | 0.00 | 0.00 | 47 | 1004.2 |
| 20260508191855 | 12 | 167 | 1.6 | 4.8 | 0.00 | 0.00 | 0.00 | 46 | 1003.9 |
| 20260508191657 | 12 | 213 | 3.2 | 9.7 | 0.00 | 0.00 | 0.00 | 46 | 1003.9 |
| 20260508190856 | 12 | 102 | 3.2 | 4.8 | 0.00 | 0.00 | 0.00 | 46 | 1003.4 |
| 20260508185855 | 12 | 189 | 3.2 | 11.3 | 0.00 | 0.00 | 0.00 | 46 | 1003.3 |
| 20260508185658 | 12 | 211 | 3.2 | 8.0 | 0.00 | 0.00 | 0.00 | 45 | 1003.3 |
| 20260508184855 | 12 | 195 | 3.2 | 4.8 | 0.00 | 0.00 | 0.00 | 43 | 1003.1 |
| 20260508183856 | 12 | 172 | 3.2 | 4.8 | 0.00 | 0.00 | 0.00 | 42 | 1002.8 |
| 20260508182855 | 12 | 195 | 1.6 | 11.3 | 0.00 | 0.00 | 0.00 | 41 | 1002.7 |
| 20260508181856 | 13 | 188 | 0.0 | 1.6 | 0.00 | 0.00 | 0.00 | 41 | 1002.5 |
| 20260508181659 | 13 | 172 | 0.0 | 1.6 | 0.00 | 0.00 | 0.00 | 39 | 1002.4 |
| 20260508180855 | 13 | 246 | 1.6 | 3.2 | 0.00 | 0.00 | 0.00 | 38 | 1002.3 |
| 20260508175856 | 13 | 235 | 1.6 | 51.5 | 0.00 | 0.00 | 0.00 | 38 | 1002.3 |
| 20260508174855 | 13 | 94 | 1.6 | 3.2 | 0.00 | 0.00 | 0.00 | 38 | 1001.8 |